STARLINK-5590, 55371

Orbit data source: Space-Track

STARLINK-5590, 55371 is a payload satellite owned by SpaceX/Seattle (US) in LEO that was launched on Thu, 26 Jan 2023 UTC via an FALCON 9 launch vehicle from the Air Force Eastern Test Range (AFETR). Payload-class satellites include a variety of spacecraft equipped with specific instruments for various scientific and technological missions. These include communications satellites like Starlink; space stations such as the ISS; scientific satellites like the Hubble; Earth observation satellites from companies like Planet Labs, Umbra, and HawkEye 360; GPS; miniature CubeSats for education and research; and military/defense satellites.

Loading next visibility...
Identifier
55371, 2023-013AS
Orbit
LEO
Country
Flag of USUS
Related business
Manufacturer
SpaceX/Seattle
Mission
Operational Commercial Communications
Bus & Motor
STARLINK, Unknown motor
Mass
305 kg wet, ~290 kg dry
Launch date (UTC)
2023-01-26 (3 years ago)
Launch vehicle
FALCON 9
Launch site
Air Force Eastern Test Range (AFETR)
Object type
Payload
Rocket body
Debris
Shape & HBR
Box + 1 Pan, 10.1 m
Radar Cross Section
13.562 m², Large (>1 m²)

Expand to show TLE details & history
Last TLE update: 19 hours ago

TLE from 19 hours ago
0 STARLINK-5590
1 55371U 23013AS  25349.21009739 -.00002064  00000-0 -13773-3 0  9992
2 55371  43.0060  52.1692 0001398 274.7027  85.3655 15.02537349159771
Epoch: 2025-12-15T05:02Z
TLE epoch observation values (Epoch: 2025-12-15T05:02:32.414Z)
Latitude
-0.00007°
Longitude
-107.57787°
Altitude
558.776 km
Speed
7.584 km/s
True Right ascension
03h 28m 40s
True Declination
0° 00' 00"
Sunlit
Object was in full shadow at epoch
Visualization orbit readout
Latitude
Unknown
Longitude
Unknown
Altitude
Unknown
Speed
Unknown
Apparent Right ascension
Unknown
Apparent Declination
Unknown
Sunlit
N/A
Visualization observer readout
Local Sidereal Time
22:49:30
Azimuth
Unknown
Elevation
Unknown
Doppler factor
Unknown
Orbital elements
Apogee altitude
561.968 km
Perigee altitude
560.028 km
Semi-major axis
6,939.135 km
Eccentricity
0.00014
Inclination
43.006°
RAAN
52.1692°
Arg. of periapsis
274.7027°
True anomaly
85.38147°
Mean anomaly
85.3655°
Eccentric anomaly
85.37348°
Mean motion
3.75479 °/min
Orbital period
95.88 mins
BSTAR
-0.00013773
Loading maneuver chart data...
Computing Atmospheric mass density...
Loading historical data...
Loading historical data...
Loading historical data...
Loading historical data...
Loading historical data...
Loading historical data...
Loading historical data...

Documentation

Showing up to 5 results
|